Flag for U.S.A. Weather past 2 weeks in Cambridge, Massachusetts, U.S.A.

Now
77 °F

Clear.


Feels Like: 79 °F
Forecast: 64 / 85 °F
Wind: 7 mph from North

Location: Logan International Airport

Current Time: Jul 5, 2015 at 11:08:41 PM

Latest Report: Jul 5, 2015 at 9:54 PM


Visibility: 10 mi

Pressure: 30.10 "Hg

Humidity: 58%

Dew point: 61 °F

Location of CambridgeLocation

Historic Weather in Cambridge — Graph

°F

Cambridge temperature yesterday

Maximum temperature yesterday: 72 °F (at 11:54 AM)
Minimum temperature yesterday: 62 °F (at 2:54 AM)
Average temperature yesterday: 66 °F

Past Weeks' High & Low Weather Summary

 TemperatureHumidityPressure
High86 °F (Jun 23, 4:54 PM)100% (Jun 21, 6:54 AM)30.19 "Hg (Jun 21, 6:54 AM)
Low53 °F (Jun 28, 10:54 PM)29% (Jun 24, 6:54 PM)29.63 "Hg (Jun 21, 3:54 PM)
Average68 °F73%29.91 "Hg
* Reported Jun 20 9:54 PM — Jul 5 9:54 PM, Cambridge, Weather by CustomWeather, © 2015

Note: Actual official high and low records may vary slightly from our data, if they occured in-between our weather recording intervals... More about our weather records

Advertising

Cambridge weather history for previous 24 hours

 ConditionsComfort  
Time TempWeatherWind HumidityBarometerVisibility
9:54 PM
Sun, Jul 5
77 °FClear.7 mph58%30.10 "Hg10 mi
8:54 PM79 °FPassing clouds.12 mph52%30.08 "Hg10 mi
7:54 PM80 °FScattered clouds.9 mph49%30.06 "Hg10 mi
5:54 PM83 °FPassing clouds.7 mph43%30.04 "Hg10 mi
4:54 PM83 °FScattered clouds.8 mph44%30.05 "Hg10 mi
2:54 PM79 °FPartly sunny.8 mph48%30.05 "Hg10 mi
1:54 PM80 °FPassing clouds.6 mph45%30.06 "Hg8 mi
12:54 PM81 °FPassing clouds.9 mph45%30.07 "Hg8 mi
10:54 AM77 °FSunny.9 mph56%30.06 "Hg8 mi
9:54 AM75 °FSunny.10 mph60%30.06 "Hg8 mi
8:54 AM71 °FSunny.7 mph68%30.07 "Hg8 mi
7:54 AM67 °FSunny.9 mph73%30.04 "Hg7 mi
6:54 AM64 °FPassing clouds.8 mph81%30.03 "Hg7 mi
5:54 AM63 °FPassing clouds.9 mph81%30.01 "Hg10 mi
4:54 AM63 °FPassing clouds.8 mph81%30.00 "Hg10 mi
3:54 AM61 °FClear.7 mph90%29.99 "Hg10 mi
2:54 AM62 °FClear.5 mph90%29.99 "Hg8 mi
1:54 AM62 °FPassing clouds.6 mph90%30.00 "Hg7 mi
12:54 AM62 °FPassing clouds.No wind83%30.00 "Hg7 mi
11:54 PM
Sat, Jul 4
64 °FPassing clouds.No wind75%29.99 "Hg10 mi
Weather by CustomWeather, © 2015

See weather overviewHow to use our weather pages